Weather History for Missoula, MT

Change the Weather History Date:

Tuesday, June 18, 2013

  Actual Average Record
Temperature  
Mean Temperature 68 °F 61 °F  
Max Temperature 85 °F 76 °F 97 °F (2003)
Min Temperature 51 °F 47 °F 31 °F (1960)
Degree Days  
Heating Degree Days 0 5  
Month to date heating degree days 89 115  
Since 1 June heating degree days 89 115  
Since 1 July heating degree days 6871 7239  
Cooling Degree Days 3 1  
Month to date cooling degree days 12 18  
Year to date cooling degree days 16 24  
Since 1 June cooling degree days 12 18  
Growing Degree Days 18 (Base 50)    
Moisture  
Dew Point 48 °F    
Average Humidity 54    
Maximum Humidity 77    
Minimum Humidity 30    
Precipitation  
Precipitation T in 0.07 in 0.48 in (1995)
Month to date precipitation 0.53 1.40  
Year to date precipitation 4.65 7.18  
Snow  
Snow 0.00 in - - ()
Month to date snowfall 0.0  
Year to date snowfall 27.4  
Since 1 July snowfall 48.5  
Snow Depth 0.00 in    
Sea Level Pressure  
Sea Level Pressure 29.73 in    
Wind  
Wind Speed 7 mph (NNW)    
Max Wind Speed 23 mph    
Max Gust Speed 29 mph    
Visibility 10 miles    
Events Rain , Thunderstorm    
T = Trace of Precipitation, MM = Missing Value Source: NWS Daily Summary

Daily Weather History Graph

Daily Weather History Graph

Search for Another Location

Airport:

Trip Planner

Search our weather history database for the weather conditions in past years. The results will help you decide how hot, cold, wet, or windy it might be!

Date:

Astronomy

Jun. 18, 2013 Rise Set
Actual Time 5:41 AM MDT 9:34 PM MDT
Civil Twilight 5:01 AM MDT 10:13 PM MDT
Nautical Twilight 4:07 AM MDT 11:08 PM MDT
Astronomical Twilight 2:45 AM MDT 12:29 AM MDT
Moon 4:08 PM MDT (6/18) 2:08 AM MDT (6/18)
Length of Visible Light 17h 12m
Length of Day
15h 52m
Waxing Gibbous, 71% of the Moon is Illuminated
Jun 18
Waxing Gibbous
Jun 23
Full
Jun 29
Last Quarter
Jul 8
New
Jul 15
First Quarter

Hourly Weather History & Observations

Time (MDT) Temp. Dew Point Humidity Pressure Visibility Wind Dir Wind Speed Gust Speed Precip Events Conditions
12:53 AM 63.0 °F 46.0 °F 54% 29.81 in 10.0 mi East 4.6 mph - N/A   Clear
1:53 AM 60.1 °F 46.9 °F 62% 29.81 in 10.0 mi Calm Calm - N/A   Clear
2:53 AM 57.0 °F 45.0 °F 64% 29.79 in 10.0 mi West 3.5 mph - N/A   Clear
3:53 AM 54.0 °F 44.1 °F 69% 29.80 in 10.0 mi ENE 4.6 mph - N/A   Clear
4:53 AM 55.9 °F 46.0 °F 69% 29.79 in 10.0 mi East 3.5 mph - N/A   Clear
5:53 AM 54.0 °F 46.0 °F 75% 29.79 in 10.0 mi SSE 4.6 mph - N/A   Clear
6:53 AM 54.0 °F 46.0 °F 75% 29.81 in 10.0 mi Calm Calm - N/A   Clear
7:53 AM 57.0 °F 46.9 °F 69% 29.81 in 10.0 mi Calm Calm - N/A   Clear
8:53 AM 63.0 °F 46.0 °F 54% 29.80 in 10.0 mi Calm Calm - N/A   Clear
9:53 AM 69.1 °F 45.0 °F 42% 29.80 in 10.0 mi Variable 3.5 mph - N/A   Clear
10:53 AM 73.0 °F 46.0 °F 38% 29.77 in 10.0 mi WNW 4.6 mph - N/A   Clear
11:53 AM 78.1 °F 44.1 °F 30% 29.75 in 10.0 mi WNW 5.8 mph - N/A   Clear
12:53 PM 81.0 °F 46.0 °F 29% 29.71 in 10.0 mi NW 10.4 mph - N/A   Clear
1:53 PM 82.0 °F 48.9 °F 31% 29.70 in 10.0 mi North 11.5 mph - N/A   Clear
2:53 PM 82.9 °F 48.9 °F 31% 29.66 in 10.0 mi NNE 19.6 mph 26.5 mph N/A   Clear
3:53 PM 79.0 °F 48.0 °F 34% 29.65 in 10.0 mi North 16.1 mph 21.9 mph N/A   Partly Cloudy
4:20 PM 77.0 °F 48.2 °F 36% 29.73 in 10.0 mi NE 9.2 mph 23.0 mph 0.00 in Rain , Thunderstorm Light Rain
4:31 PM 75.2 °F 50.0 °F 41% 29.71 in 10.0 mi NE 13.8 mph - 0.00 in   Mostly Cloudy
4:53 PM 75.9 °F 51.1 °F 42% 29.67 in 10.0 mi Variable 3.5 mph - 0.00 in   Scattered Clouds
5:13 PM 75.2 °F 48.2 °F 38% 29.73 in 10.0 mi Variable 5.8 mph - N/A Thunderstorm Mostly Cloudy
5:27 PM 75.2 °F 48.2 °F 38% 29.72 in 10.0 mi WNW 10.4 mph - N/A   Mostly Cloudy
5:53 PM 73.0 °F 54.0 °F 51% 29.66 in 10.0 mi NW 10.4 mph - N/A   Clear
6:53 PM 73.0 °F 53.1 °F 49% 29.68 in 10.0 mi NW 11.5 mph - N/A   Clear
7:53 PM 73.0 °F 50.0 °F 44% 29.66 in 10.0 mi NW 5.8 mph - N/A   Clear
8:53 PM 68.0 °F 54.0 °F 61% 29.66 in 10.0 mi NW 6.9 mph - N/A   Clear
9:53 PM 66.9 °F 50.0 °F 54% 29.67 in 10.0 mi NW 10.4 mph - N/A   Clear
10:53 PM 64.9 °F 51.1 °F 61% 29.70 in 10.0 mi WNW 5.8 mph - N/A   Clear
11:53 PM 66.0 °F 50.0 °F 56% 29.67 in 10.0 mi NNW 8.1 mph - N/A   Clear